Home > Time Zones > World Clock > Weather > India > Bundi > Past weeks

Flag for India Weather past 2 weeks in Bundi, Rajasthan, India

Now
86 °F

Scattered clouds.


Feels Like: 95 °F
Forecast: 77 / 87 °F
Wind: 7 mph from Northeast

Location: Jaipur / Sanganer

Current Time: Sep 1, 2014 at 7:15:48 PM

Latest Report: Sep 1, 2014 at 6:00 PM


Visibility: 2 mi

Pressure: 29.53 "Hg

Humidity: 70%

Dew point: 75 °F

Location of BundiLocation

Historic Weather in Bundi — Graph

°F

Bundi temperature yesterday

Maximum temperature yesterday: 91 °F (at 1:00 PM)
Minimum temperature yesterday: 77 °F (at 4:00 PM)
Average temperature yesterday: 83 °F

Past Weeks' High & Low Weather Summary

 TemperatureHumidityPressure
High100 °F (Aug 25, 3:00 PM)94% (Aug 30, 11:00 AM)30.01 "Hg (Aug 30, 11:00 AM)
Low75 °F (Aug 30, 1:00 PM)27% (Aug 25, 4:00 PM)29.53 "Hg (Aug 31, 3:00 PM)
Average87 °F60%29.71 "Hg
* Reported Aug 17 6:00 PM — Sep 1 6:00 PM, Bundi, Weather by CustomWeather, © 2014

Note: Actual official high and low records may vary slightly from our data, if they occured in-between our weather recording intervals... More about our weather records

Advertising

Bundi weather history for previous 24 hours

 ConditionsComfort  
Time TempWeatherWind HumidityBarometerVisibility
6:00 PM
Sep 1
86 °FScattered clouds.7 mph70%29.53 "Hg2 mi
5:00 PM86 °FScattered clouds.10 mph66%29.53 "Hg2 mi
4:00 PM86 °FScattered clouds.10 mph66%29.53 "Hg2 mi
3:00 PM86 °FBroken clouds.12 mph70%29.56 "Hg2 mi
2:00 PM84 °FBroken clouds.9 mph70%29.59 "Hg2 mi
1:00 PM86 °FBroken clouds.12 mph66%29.62 "Hg2 mi
12:00 PM82 °FBroken clouds.12 mph74%29.62 "Hg2 mi
11:00 AM82 °FBroken clouds.10 mph74%29.65 "Hg2 mi
10:00 AM82 °FBroken clouds.13 mph79%29.62 "Hg2 mi
9:00 AM81 °FFog.14 mph79%29.62 "Hg2 mi
8:00 AM81 °FFog.10 mph84%29.62 "Hg2 mi
7:00 AM79 °FFog.12 mph89%29.62 "Hg2 mi
6:00 AM79 °FFog.13 mph89%29.59 "Hg2 mi
5:30 AM79 °FFog.12 mph89%29.59 "Hg2 mi
5:00 AM79 °FFog.9 mph89%29.59 "Hg2 mi
4:00 AM79 °FFog.9 mph89%29.59 "Hg2 mi
3:00 AM81 °FFog.10 mph84%29.56 "Hg2 mi
2:00 AM81 °FFog.9 mph84%29.59 "Hg2 mi
1:00 AM79 °FFog.7 mph89%29.59 "Hg2 mi
12:00 AM81 °FFog.7 mph79%29.62 "Hg2 mi
11:00 PM
Aug 31
81 °FFog.7 mph79%29.62 "Hg2 mi
10:00 PM81 °FFog.8 mph79%29.62 "Hg2 mi
9:00 PM81 °FPartly cloudy.5 mph84%29.62 "Hg2 mi
8:00 PM81 °FPartly cloudy.5 mph84%29.59 "Hg2 mi
7:00 PM79 °FBroken clouds.3 mph89%29.56 "Hg2 mi
Weather by CustomWeather, © 2014

See weather overviewHow to use our weather pages